Simultaneous Nadir Overpasses (SNOs) Predictions

Prediction of SNOs near US between AQUA and NPP Satellite Orbit:

Table of predicted SNOs near US for the next 10.0 days since TLE Epoch: 1/25/2019
Index Date (AQUA) Time (AQUA) AQUA Lat,Lon Date (NPP) Time (NPP) NPP Lat,Lon Distance(km) Time Diff (sec)
1 01/27/2019 18:17:01 49.97, -80.18 01/27/2019 18:10:42 49.70, -81.82 121.19 379
2 01/27/2019 19:55:54 49.96,-104.90 01/27/2019 19:52:10 49.59,-107.14 166.45 224
3 01/27/2019 21:31:04 36.67,-124.98 01/27/2019 21:29:48 36.15,-127.63 243.28 76
4 01/30/2019 09:23:58 22.28,-113.69 01/30/2019 09:16:15 22.37,-114.24 57.02 463
5 02/02/2019 06:30:26 46.33, -65.03 02/02/2019 06:30:40 46.76, -67.11 166.27 14
6 02/02/2019 08:08:19 49.89, -88.33 02/02/2019 08:11:07 50.38, -90.93 193.42 168
7 02/02/2019 09:47:12 49.90,-113.05 02/02/2019 09:52:34 50.55,-116.23 237.79 322




NCC Satellite Simultaneous Nadir Overpasses (SNOs) Prediction Service
